Christmas Island, Christmas Island

1:37 PM +07 on April 29, 2017 (GMT +0700)
Christmas Island

Weather History for YPXM - May, 2012

Change the Weather History Date:

Tuesday, May 15, 2012

  Actual Average Record
Temperature  
Mean Temperature 76 °F -  
Max Temperature 81 °F 78 °F 84 °F (2005)
Min Temperature 71 °F 72 °F 71 °F (1999)
Cooling Degree Days 11    
Growing Degree Days 26 (Base 50)    
Moisture  
Dew Point 75 °F    
Average Humidity 90    
Maximum Humidity 100    
Minimum Humidity 82    
Precipitation  
Precipitation 0.00 in - - ()
Sea Level Pressure  
Sea Level Pressure 29.86 in    
Wind  
Wind Speed 13 mph ()    
Max Wind Speed 17 mph    
Max Gust Speed 29 mph    
Visibility 6.0 miles    
Events      
Averages and records for this station are not official NWS values.
T = Trace of Precipitation, MM = Missing Value Source: Averaged Metar Reports

Daily Weather History Graph

Daily Weather History Graph

Search for Another Location

Airport or City:

Trip Planner

Search our weather history database for the weather conditions in past years. The results will help you decide how hot, cold, wet, or windy it might be!

Date:

Astronomy

May. 15, 2012 Rise Set
Actual Time 6:04 AM +07 5:42 PM +07
Civil Twilight 5:42 AM +07 6:04 PM +07
Nautical Twilight 5:16 AM +07 6:30 PM +07
Astronomical Twilight 4:51 AM +07 6:56 PM +07
Moon 1:26 AM +07 (5/15) 1:46 PM +07 (5/15)
Length of Visible Light 12h 22m
Length of Day
11h 38m
Waning Crescent, 28% of the Moon is Illuminated
May 15
Waning Crescent
May 21
New
May 29
First Quarter
Jun 4
Full
Jun 11
Last Quarter

Hourly Weather History & Observations

Time (+07) Temp. Heat Index Dew Point Humidity Pressure Visibility Wind Dir Wind Speed Gust Speed Precip Events Conditions
12:00 AM 76 °F - 74 °F 90% 29.87 in - SE 13.8 mph - -  
12:00 AM 75.2 °F - 73.4 °F 94% 29.89 in 6.2 mi SE 13.8 mph - N/A   Mostly Cloudy
12:10 AM 75.2 °F - 71.6 °F 89% 29.89 in 6.2 mi SE 15.0 mph - N/A   Scattered Clouds
1:00 AM 76 °F - 74 °F 90% 29.83 in - SE 12.7 mph - -  
1:00 AM 77.0 °F - 73.4 °F 89% 29.86 in 6.2 mi SE 12.7 mph - N/A   Scattered Clouds
1:08 AM 77.0 °F - 73.4 °F 89% 29.86 in 6.2 mi SE 13.8 mph - N/A   Scattered Clouds
1:28 AM 77.0 °F - 73.4 °F 89% 29.86 in 6.2 mi SE 12.7 mph - N/A   Mostly Cloudy
2:00 AM 77.0 °F - 75.2 °F 94% 29.86 in 6.2 mi ESE 13.8 mph - N/A   Overcast
2:48 AM 77.0 °F - 77.0 °F 100% 29.86 in 3.7 mi SE 11.5 mph - N/A   Overcast
3:00 AM 77.0 °F - 77.0 °F 100% 29.86 in 3.7 mi ESE 13.8 mph - N/A   Overcast
3:12 AM 77.0 °F - 75.2 °F 94% 29.86 in 5.6 mi SE 13.8 mph - N/A   Mostly Cloudy
3:35 AM 77.0 °F - 73.4 °F 89% 29.86 in 6.2 mi SE 11.5 mph - N/A   Overcast
3:42 AM 77.0 °F - 73.4 °F 89% 29.83 in 6.2 mi SE 12.7 mph - N/A   Overcast
4:00 AM 77 °F - 75 °F 91% 29.81 in - SE 13.8 mph - -  
4:00 AM 77.0 °F - 75.2 °F 94% 29.83 in 6.2 mi SE 13.8 mph - N/A   Overcast
4:08 AM 75.2 °F - 73.4 °F 94% 29.86 in 3.7 mi SE 16.1 mph 28.8 mph N/A   Overcast
5:00 AM 73.4 °F - 71.6 °F 94% 29.86 in 6.2 mi SE 9.2 mph - N/A   Overcast
5:06 AM 73.4 °F - 71.6 °F 94% 29.86 in 6.2 mi SE 9.2 mph - N/A   Mostly Cloudy
5:10 AM 73.4 °F - 73.4 °F 100% 29.86 in 6.2 mi SE 9.2 mph - N/A   Mostly Cloudy
6:00 AM 76 °F - 75 °F 94% 29.83 in - SE 13.8 mph - -  
6:00 AM 77.0 °F - 75.2 °F 94% 29.86 in 6.2 mi SE 13.8 mph - N/A   Scattered Clouds
6:16 AM 77.0 °F - 75.2 °F 94% 29.86 in 6.2 mi SE 15.0 mph - N/A   Mostly Cloudy
7:00 AM 78 °F - 75 °F 88% 29.84 in - SE 16.1 mph - -  
7:00 AM 77.0 °F - 75.2 °F 94% 29.89 in 6.2 mi SE 16.1 mph - N/A   Overcast
7:51 AM 78.8 °F - 75.2 °F 89% 29.89 in 6.2 mi SE 16.1 mph - N/A   Overcast
7:56 AM 78.8 °F - 75.2 °F 89% 29.89 in 6.2 mi SE 17.3 mph - N/A   Overcast
8:00 AM 78.8 °F - 75.2 °F 89% 29.89 in 6.2 mi SE 17.3 mph - N/A   Overcast
9:00 AM 79 °F - 75 °F 83% 29.88 in - ESE 17.3 mph - -   Overcast
9:00 AM 78.8 °F - 75.2 °F 89% 29.92 in 6.2 mi ESE 17.3 mph - N/A   Overcast
10:00 AM 79 °F - 75 °F 84% 29.88 in - ESE 16.1 mph - -  
10:00 AM 78.8 °F - 75.2 °F 89% 29.92 in 6.2 mi ESE 16.1 mph - N/A   Overcast
11:00 AM 78.8 °F - 75.2 °F 89% 29.89 in 6.2 mi ESE 16.1 mph - N/A   Overcast
12:00 PM 80 °F - 76 °F 82% 29.84 in - ESE 16.1 mph - -   Overcast
12:00 PM 80.6 °F 86.2 °F 75.2 °F 84% 29.89 in 6.2 mi ESE 16.1 mph - N/A   Overcast
1:00 PM 81 °F - 76 °F 82% 29.81 in - ESE 15.0 mph - -  
1:00 PM 80.6 °F 87.1 °F 77.0 °F 89% 29.86 in 6.2 mi ESE 15.0 mph - N/A   Overcast
2:00 PM 80.6 °F 86.2 °F 75.2 °F 84% 29.83 in 6.2 mi ESE 15.0 mph - N/A   Overcast
3:00 PM 79 °F - 75 °F 85% 29.78 in - ESE 15.0 mph - -   Overcast
3:00 PM 78.8 °F - 75.2 °F 89% 29.83 in 6.2 mi ESE 15.0 mph - N/A   Overcast
4:00 PM 79 °F - 75 °F 84% 29.79 in - ESE 12.7 mph - -  
4:00 PM 78.8 °F - 75.2 °F 89% 29.83 in 6.2 mi ESE 12.7 mph - N/A   Mostly Cloudy
5:00 PM 78.8 °F - 75.2 °F 89% 29.83 in 6.2 mi ESE 12.7 mph - N/A   Mostly Cloudy
6:00 PM 78 °F - 75 °F 88% 29.82 in - ESE 11.5 mph - -  
6:00 PM 78.8 °F - 75.2 °F 89% 29.86 in 6.2 mi ESE 11.5 mph - N/A   Scattered Clouds
6:04 PM 78.8 °F - 75.2 °F 89% 29.86 in 6.2 mi ESE 12.7 mph - N/A   Mostly Cloudy
6:07 PM 78.8 °F - 75.2 °F 89% 29.86 in 6.2 mi ESE 11.5 mph - N/A   Mostly Cloudy
7:00 PM 78 °F - 75 °F 89% 29.84 in - SE 12.7 mph - -  
7:00 PM 78.8 °F - 75.2 °F 89% 29.89 in 6.2 mi SE 12.7 mph - N/A   Mostly Cloudy
8:00 PM 78.8 °F - 75.2 °F 89% 29.89 in 6.2 mi ESE 11.5 mph - N/A   Mostly Cloudy
8:52 PM 78.8 °F - 75.2 °F 89% 29.92 in 6.2 mi SE 13.8 mph - N/A   Overcast
9:00 PM 78 °F - 75 °F 87% 29.87 in - SE 12.7 mph - -   Overcast
9:00 PM 78.8 °F - 75.2 °F 89% 29.92 in 6.2 mi SE 12.7 mph - N/A   Mostly Cloudy
9:02 PM 78.8 °F - 75.2 °F 89% 29.92 in 6.2 mi SE 11.5 mph - N/A   Overcast
10:00 PM 78 °F - 74 °F 85% 29.88 in - ESE 12.7 mph - -  
10:00 PM 77.0 °F - 75.2 °F 94% 29.92 in 6.2 mi ESE 12.7 mph - N/A   Mostly Cloudy
11:00 PM 77.0 °F - 73.4 °F 89% 29.89 in 6.2 mi SE 13.8 mph - N/A   Mostly Cloudy